New Haven, CT

5:02 PM EST on November 13, 2019 (GMT -0500)
Tweed-New Haven

Weather History for KHVN - October, 2019

Change the Weather History Date:

Wednesday, October 23, 2019

  Actual Average Record
Temperature  
Mean Temperature 62 °F -  
Max Temperature 69 °F 57 °F 83 °F (1979)
Min Temperature 55 °F 42 °F 30 °F (1969)
Degree Days  
Heating Degree Days 4    
Growing Degree Days 12 (Base 50)    
Moisture  
Dew Point 50 °F    
Average Humidity 67    
Maximum Humidity 93    
Minimum Humidity 32    
Precipitation  
Precipitation 0.19 in - - ()
Sea Level Pressure  
Sea Level Pressure 29.88 in    
Wind  
Wind Speed 9 mph ()    
Max Wind Speed 17 mph    
Max Gust Speed 24 mph    
Visibility 8.8 miles    
Events Rain    
Averages and records for this station are not official NWS values.
T = Trace of Precipitation, MM = Missing Value Source: Averaged Metar Reports

Daily Weather History Graph

Daily Weather History Graph

Search for Another Location

Airport or City:

Astronomy

Oct. 23, 2019 Rise Set
Actual Time 7:12 AM EDT 5:59 PM EDT
Civil Twilight 6:43 AM EDT 6:27 PM EDT
Nautical Twilight 6:11 AM EDT 6:59 PM EDT
Astronomical Twilight 5:39 AM EDT 7:31 PM EDT
Moon 1:22 AM EDT (10/23) 3:51 PM EDT (10/23)
Length of Visible Light 11h 43m
Length of Day
10h 47m
Waning Crescent, 27% of the Moon is Illuminated
Oct 23
Waning Crescent
Oct 27
New
Nov 4
First Quarter
Nov 12
Full
Nov 19
Last Quarter

Hourly Weather History & Observations

Time (EDT) Temp. Dew Point Humidity Pressure Visibility Wind Dir Wind Speed Gust Speed Precip Events Conditions
12:04 AM 61.0 °F 59.0 °F 93% 29.82 in 7.0 mi East 12.7 mph 19.6 mph 0.02 in Rain Light Rain
12:42 AM 62.1 °F 60.1 °F 93% 29.80 in 6.0 mi East 11.5 mph - 0.07 in Rain Light Rain
12:53 AM 63.0 °F 60.1 °F 90% 29.80 in 10.0 mi East 12.7 mph 20.7 mph 0.07 in   Overcast
1:09 AM 63.0 °F 61.0 °F 93% 29.78 in 5.0 mi East 13.8 mph 18.4 mph 0.01 in Rain Light Rain
1:41 AM 63.0 °F 61.0 °F 93% 29.76 in 10.0 mi East 11.5 mph - 0.02 in   Overcast
1:53 AM 63.0 °F 61.0 °F 93% 29.76 in 5.0 mi ESE 9.2 mph - 0.02 in   Overcast
2:53 AM 64.0 °F 62.1 °F 93% 29.74 in 4.0 mi ESE 10.4 mph - 0.04 in Rain Light Rain
3:53 AM 64.9 °F 63.0 °F 93% 29.72 in 5.0 mi SE 3.5 mph - 0.02 in   Overcast
4:31 AM 62.1 °F 59.0 °F 90% 29.74 in 6.0 mi NW 9.2 mph - 0.04 in Rain Light Rain
4:53 AM 62.1 °F 59.0 °F 90% 29.75 in 10.0 mi North 8.1 mph - 0.04 in   Overcast
5:53 AM 60.1 °F 57.0 °F 90% 29.76 in 7.0 mi North 9.2 mph - N/A   Overcast
6:53 AM 59.0 °F 55.0 °F 87% 29.78 in 10.0 mi NNW 9.2 mph 17.3 mph N/A   Overcast
7:00 AM 59.0 °F 55.0 °F 87% 29.78 in 10.0 mi NNW 9.2 mph - N/A   Clear
7:53 AM 59.0 °F 55.0 °F 87% 29.82 in 10.0 mi West 5.8 mph - N/A   Clear
8:53 AM 60.1 °F 54.0 °F 80% 29.85 in 10.0 mi WNW 4.6 mph - N/A   Clear
9:53 AM 63.0 °F 51.1 °F 65% 29.88 in 10.0 mi NW 6.9 mph - N/A   Clear
10:53 AM 64.9 °F 48.0 °F 54% 29.88 in 10.0 mi NNW 15.0 mph 20.7 mph N/A   Partly Cloudy
11:53 AM 66.9 °F 46.0 °F 47% 29.89 in 10.0 mi NW 13.8 mph - N/A   Scattered Clouds
12:53 PM 68.0 °F 41.0 °F 37% 29.88 in 10.0 mi NW 9.2 mph 19.6 mph N/A   Partly Cloudy
1:53 PM 68.0 °F 42.1 °F 39% 29.90 in 10.0 mi NW 15.0 mph 24.2 mph N/A   Scattered Clouds
2:53 PM 68.0 °F 39.9 °F 36% 29.91 in 10.0 mi NW 17.3 mph 24.2 mph N/A   Partly Cloudy
3:53 PM 68.0 °F 37.0 °F 32% 29.93 in 10.0 mi WNW 10.4 mph 19.6 mph N/A   Partly Cloudy
4:53 PM 66.9 °F 36.0 °F 32% 29.95 in 10.0 mi West 10.4 mph - N/A   Clear
5:53 PM 64.9 °F 35.1 °F 33% 29.99 in 10.0 mi Variable 5.8 mph - N/A   Clear
6:53 PM 63.0 °F 36.0 °F 37% 30.02 in 10.0 mi West 3.5 mph - N/A   Clear
7:53 PM 55.9 °F 39.9 °F 55% 30.06 in 10.0 mi Calm Calm - N/A   Clear
8:53 PM 60.1 °F 39.0 °F 46% 30.09 in 10.0 mi Variable 4.6 mph - N/A   Clear
9:53 PM 59.0 °F 39.0 °F 48% 30.12 in 10.0 mi Variable 4.6 mph - N/A   Clear
10:53 PM 57.9 °F 39.9 °F 51% 30.13 in 10.0 mi Variable 3.5 mph - N/A   Clear
11:53 PM 57.0 °F 39.0 °F 51% 30.14 in 10.0 mi Variable 3.5 mph - N/A   Clear